Terug naar catalogus

STARLINK-35160

ActiefCommunicatieVLEO
NORAD 65911·PAYLOAD·🇺🇸 United States

Gelanceerd Oct 8, 2025 vanaf Vandenberg Space Force Base

Loading…

Volgende Passages (komende 24 uur)

TLE

VersSource: CelesTrak SupGP

Epoch: Sep 14, 2026, 14:48 UTC

1 65911C 25225B   26257.61715278 -.00101380  00000+0 -29959-2 0  2574
2 65911  53.1592   5.0408 0001238  85.6347  49.3277 15.34434426    12

Volg STARLINK-35160 in realtime met AllMySat

Download on the App Store